Gillam, Manitoba

4:36 PM CDT on April 27, 2017 (GMT -0500)
Gillam

Weather History for CYGX - May, 2013

Change the Weather History Date:

Saturday, May 25, 2013

  Actual Average Record
Temperature  
Mean Temperature 50 °F -  
Max Temperature 68 °F 60 °F 69 °F (2003)
Min Temperature 31 °F 39 °F 23 °F (2007)
Degree Days  
Heating Degree Days 16    
Moisture  
Dew Point 29 °F    
Average Humidity 44    
Maximum Humidity 75    
Minimum Humidity 16    
Precipitation  
Precipitation 0.00 in 0.07 in - ()
Sea Level Pressure  
Sea Level Pressure 30.38 in    
Wind  
Wind Speed 6 mph ()    
Max Wind Speed 12 mph    
Max Gust Speed 18 mph    
Visibility 15.0 miles    
Events      
Averages and records for this station are not official NWS values.
T = Trace of Precipitation, MM = Missing Value Source: Averaged Metar Reports

Daily Weather History Graph

Daily Weather History Graph

Search for Another Location

Airport or City:

Trip Planner

Search our weather history database for the weather conditions in past years. The results will help you decide how hot, cold, wet, or windy it might be!

Date:

Astronomy

May. 25, 2013 Rise Set
Actual Time 4:46 AM CDT 9:45 PM CDT
Civil Twilight 3:51 AM CDT 10:42 PM CDT
Nautical Twilight 2:03 AM CDT 12:34 AM CDT
Astronomical Twilight Sun does not set Sun does not set
Moon 10:31 PM CDT (5/25) 5:19 AM CDT (5/25)
Length of Visible Light 18h 50m
Length of Day
16h 59m
Full, 100% of the Moon is Illuminated
May 25
Full
May 31
Last Quarter
Jun 8
New
Jun 16
First Quarter
Jun 23
Full

Hourly Weather History & Observations

Time (CDT) Temp. Windchill Dew Point Humidity Pressure Visibility Wind Dir Wind Speed Gust Speed Precip Events Conditions
12:00 AM 39.2 °F 32.5 °F 24.8 °F 56% 30.45 in 15.0 mi East 10.4 mph - N/A   Clear
1:00 AM 37 °F - 24 °F 47% 30.44 in 15 mi ESE 5.8 mph - -  
1:00 AM 37.4 °F 32.8 °F 24.8 °F 60% 30.44 in 15.0 mi ESE 5.8 mph - N/A   Clear
2:00 AM 35.6 °F 30.7 °F 24.8 °F 65% 30.44 in 15.0 mi ESE 5.8 mph - N/A   Clear
3:00 AM 33.8 °F 27.7 °F 24.8 °F 70% 30.45 in 15.0 mi ESE 6.9 mph - N/A   Clear
4:00 AM 32.0 °F 27.5 °F 24.8 °F 75% 30.44 in 15.0 mi ESE 4.6 mph - N/A   Clear
5:00 AM 32.0 °F 26.4 °F 24.8 °F 75% 30.44 in 15.0 mi ENE 5.8 mph - N/A   Clear
6:00 AM 33.8 °F 28.6 °F 24.8 °F 70% 30.44 in 15.0 mi ESE 5.8 mph - N/A   Partly Cloudy
7:00 AM 38 °F - 27 °F 53% 30.43 in 15 mi East 5.8 mph - -   Scattered Clouds
7:00 AM 39.2 °F 34.2 °F 26.6 °F 61% 30.43 in 15.0 mi East 6.9 mph - N/A   Partly Cloudy
8:00 AM 42.8 °F - 28.4 °F 57% 30.43 in 15.0 mi ESE 2.3 mph - N/A   Partly Cloudy
9:00 AM 51.8 °F - 32.0 °F 47% 30.43 in 15.0 mi NE 4.6 mph - N/A   Partly Cloudy
10:00 AM 55.4 °F - 32.0 °F 41% 30.41 in 15.0 mi ENE 11.5 mph - N/A   Partly Cloudy
11:00 AM 59.0 °F - 30.2 °F 34% 30.41 in 15.0 mi NE 9.2 mph - N/A   Partly Cloudy
12:00 PM 60.8 °F - 30.2 °F 31% 30.41 in 15.0 mi South 5.8 mph - N/A   Partly Cloudy
1:00 PM 64 °F - 29 °F 16% 30.39 in 15 mi SE 1.2 mph - -   Clear
1:00 PM 64.4 °F - 28.4 °F 26% 30.39 in 15.0 mi Calm Calm - N/A   Partly Cloudy
2:00 PM 64.4 °F - 30.2 °F 28% 30.37 in 15.0 mi SE 9.2 mph - N/A   Partly Cloudy
3:00 PM 64.4 °F - 30.2 °F 28% 30.36 in 15.0 mi SSW 10.4 mph - N/A   Scattered Clouds
4:00 PM 66.2 °F - 32.0 °F 28% 30.33 in 15.0 mi SSE 8.1 mph - N/A   Scattered Clouds
5:00 PM 66.2 °F - 32.0 °F 28% 30.32 in 15.0 mi SE 11.5 mph 18.4 mph N/A   Scattered Clouds
6:00 PM 68.0 °F - 33.8 °F 28% 30.31 in 15.0 mi SSW 8.1 mph - N/A   Scattered Clouds
7:00 PM 66 °F - 31 °F 16% 30.30 in 15 mi SSE 6.9 mph - -   Clear
7:00 PM 66.2 °F - 32.0 °F 28% 30.30 in 15.0 mi South 8.1 mph - N/A   Mostly Cloudy
8:00 PM 64.4 °F - 32.0 °F 30% 30.30 in 15.0 mi SE 2.3 mph - N/A   Mostly Cloudy
9:00 PM 62.6 °F - 33.8 °F 34% 30.29 in 15.0 mi ESE 3.5 mph - N/A   Mostly Cloudy
10:00 PM 57.2 °F - 33.8 °F 41% 30.29 in 15.0 mi East 4.6 mph - N/A   Mostly Cloudy
11:00 PM 53.6 °F - 33.8 °F 47% 30.29 in 15.0 mi ESE 5.8 mph - N/A   Mostly Cloudy